Location: St. Louis
(38.6270°N, 90.1994°W)
Time: 01:11:05
(UTC-06:00)

Courier 1B Rocket - Pass Details

Date: 30 November 2021
Orbit: 920 x 1202 km, 28.2° (Epoch: 16 January)

Event Time Altitude Azimuth Distance (km) Brightness Sun altitude
Rises 00:40:56 0° 238° (WSW) 3,553 - -69.8°
Reaches altitude 10° 00:43:53 10° 226° (SW) 2,602 - -69.4°
Maximum altitude 00:49:04 28° 170° (S) 1,651 - -68.8°
Drops below altitude 10° 00:54:20 10° 113° (ESE) 2,642 - -68.1°
Sets 00:57:21 0° 102° (ESE) 3,617 - -67.7°
